SL-14 DEB, 45324

Orbit data source: Space-Track

SL-14 DEB, 45324 is space debris in LEO originally from a launch on Thu, 15 Aug 1991 UTC launched from the Plesetsk Missile And Space Complex (PKMTR). Debris objects in space refer to the collection of defunct objects orbiting the Earth. Examples of debris include non-operational satellites, rocket bodies, and fragments generated from explosions, collisions, or faulty payload assembly.

Loading next visibility...
Identifier
45324, 1991-056BN
Orbit
LEO
Country
Flag of CISCIS
Related business
Manufacturer
Unknown
Mission
Spacecraft
Bus & Motor
Unknown
Mass
Unknown
Launch date (UTC)
1991-08-15 (35 years ago)
Launch vehicle
Unknown
Launch site
Plesetsk Missile And Space Complex (PKMTR)
Object type
Payload
Rocket body
Debris
Shape & HBR
Unknown shape, 0.1 m
Radar Cross Section
Small (<0.1 m²)

Expand to show TLE details & history
Last TLE update: 2 days ago

TLE from 2 days ago
0 SL-14 DEB
1 45324U 91056BN  26252.75595491  .00000172  00000-0  38920-3 0  9996
2 45324  82.5422  66.7315 0025482 208.5950 151.3779 13.21062451316683
Epoch: 2026-09-09T18:08Z
TLE epoch observation values (Epoch: 2026-09-09T18:08:34.504Z)
Latitude
0.00003°
Longitude
165.78428°
Altitude
1,200.399 km
Speed
7.246 km/s
True Right ascension
04h 26m 55s
True Declination
0° 00' 00"
Sunlit
Object was in daylight at epoch
Visualization orbit readout
Latitude
Unknown
Longitude
Unknown
Altitude
Unknown
Speed
Unknown
Apparent Right ascension
Unknown
Apparent Declination
Unknown
Sunlit
N/A
Visualization observer readout
Local Sidereal Time
14:48:56
Azimuth
Unknown
Elevation
Unknown
Doppler factor
Unknown
Orbital elements
Apogee altitude
1,197.158 km
Perigee altitude
1,158.65 km
Semi-major axis
7,556.041 km
Eccentricity
0.00255
Inclination
82.5422°
RAAN
66.7315°
Arg. of periapsis
208.595°
True anomaly
151.51739°
Mean anomaly
151.3779°
Eccentric anomaly
151.44768°
Mean motion
3.30447 °/min
Orbital period
108.94 mins
BSTAR
0.0003892
Loading maneuver chart data...
Computing Atmospheric mass density...
Loading historical data...
Loading historical data...
Loading historical data...
Loading historical data...
Loading historical data...
Loading historical data...
Loading historical data...

Documentation

Showing up to 5 results
|